www.pogodaiklimat.ru

Погода и климат >> Архив погоды >> Македония >> Скопье город


ПОГОДА в Скопье городе

  • Прогноз погоды в Скопье городе
  • Монитор погоды в Скопье городе

АРХИВ ПОГОДЫ в Скопье городе

Время (UTC), дата Ветер
(напр.,м/с)
 
Видим.   Явления Облачность Т
(С)
Тd
(С)
f
(%)
Тe
(С)
Тes
(С)
Комфортность P
(гПа)
Po
(гПа)
Тmin
(С)
Tmax
(С)
R
(мм)
R24
(мм)
S
(см)
12 11.08 ЮВ 2 10 км ясно +37.2 +14.8 26 +38 +54 опасность
солнечного
удара
1012.2 979.5
15 11.08 Ю 1 10 км ясно +39.0 +13.0 21 +39 +44 очень
жарко
1010.2 977.8
18 11.08 З 2 10 км ясно +32.4 +11.5 28 +32 +32 жарко 1011.6 978.4 +40.0
21 11.08 З 3 10 км ясно +29.0 +13.1 38 +31 +31 жарко 1015.2 979.9
00 12.08 СЗ 2 10 км ясно +26.1 +13.5 46 +28 +28 жарко 1014.1 980.2
03 12.08 ЮЗ 2 10 км ясно +22.3 +13.9 59 +25 +25 комфорт 1014.7 980.3
06 12.08 ЮЗ 1 10 км ясно +25.9 +15.0 51 +29 +33 душно 1014.5 980.3 +22.0
09 12.08 ЮВ 2 10 км ясно +32.1 +16.0 38 +35 +50 очень
душно
1013.8 980.4
12 12.08 В 3 10 км ясно +36.3 +12.2 23 +36 +49 очень
жарко
1011.2 978.3
15 12.08 В 2 10 км ясно +38.2 +12.1 21 +38 +42 очень
жарко
1008.8 976.2
18 12.08 Ю 1 10 км ясно +34.4 +11.2 24 +34 +34 очень
жарко
1008.7 975.4 +38.8
21 12.08 З 2 10 км ясно +27.4 +13.6 43 +29 +29 жарко 1011.1 977.3
03 13.08 СЗ 2 10 км ясно +21.2 +13.5 61 +24 +24 комфорт 1012.6 978.0
06 13.08 Ю 1 10 км ясно +24.0 +14.0 54 +26 +31 жарко 1012.7 978.5 +20.3
09 13.08 ЮВ 2 10 км ясно +31.9 +13.0 32 +33 +48 жарко 1010.5 977.2
12 13.08 ЮВ 2 10 км ясно +37.2 +12.6 23 +37 +52 опасность
солнечного
удара
1007.5 974.8
15 13.08 ЮВ 2 10 км 1/1 1230 м
[Cu hum]
+39.5 +7.7 15 +37 +41 очень
жарко
1005.4 973.1
18 13.08 С 2 10 км ясно +34.3 +10.7 24 +34 +34 очень
жарко
1005.7 972.8 +40.0
21 13.08 З 2 10 км ясно +27.8 +11.9 37 +29 +29 жарко 1008.4 974.8
00 14.08 З 1 10 км ясно +24.5 +12.0 46 +26 +26 жарко 1009.2 975.2
03 14.08 З 1 10 км ясно +21.4 +13.2 60 +24 +24 комфорт 1009.4 974.9
06 14.08 ЮЗ 2 10 км ясно +23.0 +13.8 56 +26 +30 жарко 1009.5 975.3 +19.6
09 14.08 ЮВ 2 10 км 1/1 1230 м
[Cu hum]
+30.6 +11.7 31 +31 +44 жарко 1007.2 974.0
12 14.08 ЮВ 2 10 км 4/4 1000 м
[Cu med, cong]
+36.6 +11.8 22 +36 +45 очень
жарко
1004.2 971.8
15 14.08 СЗ 10
{14}
10 км гроза без осадков 8/6 1000 м
[Cb calv Ci sp]
+29.9 +16.5 44 +33 +33 душно 1005.0 971.8
18 14.08 С 8
{12}
10 км {гроза} туман 5/3 1000 м
[Sc Ac trans]
+23.1 +13.9 56 +27 +27 душно 1010.9 976.8 +37.8 0.0
21 14.08 З 3 10 км 1/1 1230 м
[Sc]
+20.8 +14.7 68 +24 +24 комфорт 1012.0 977.6
00 15.08 З 4 10 км 1/1 1000 м
[Sc]
+19.4 +14.4 73 +21 +21 комфорт 1013.0 978.3
03 15.08 ЮВ 1 10 км 1/1 1230 м
[Sc]
+18.1 +14.1 77 +19 +19 1013.1 978.3
06 15.08 С 1 10 км 4/4 1000 м
[Sc]
+20.2 +14.3 69 +24 +26 комфорт 1013.8 979.2 +17.6
09 15.08 СЗ 4 10 км 9/6 1000 м
[Cu Sc Ac lent]
+23.1 +12.8 52 +26 +28 жарко 1013.3 978.9
12 15.08 СЗ 3 10 км 8/8 1000 м
[Cu Sc]
+25.2 +12.0 44 +27 +29 жарко 1011.8 977.7
15 15.08 СЗ 5 10 км 6/4 1000 м
[Cu Sc As op]
+26.0 +11.9 41 +27 +28 жарко 1010.8 976.9
18 15.08 С 4 10 км 5/5 1000 м
[Cu Sc]
+22.1 +12.1 53 +24 +24 комфорт 1012.7 978.3 +26.6
21 15.08 З 2 10 км 5/5 1000 м
[Cu Sc]
+19.4 +11.9 62 +21 +21 комфорт 1015.2 980.3
00 16.08 З 2 10 км 4/4 1000 м
[Cu Sc]
+17.2 +11.2 68 +18 +18 1015.4 980.3
03 16.08 С 1 10 км 4/4 1000 м
[Cu Sc]
+15.8 +10.7 72 +17 +17 1015.7 980.5
06 16.08 Ю 1 10 км 5/3 1000 м
[Cu Sc Ac trans]
+19.1 +11.3 61 +21 +24 комфорт 1015.8 980.9 +15.7
09 16.08 В 2 10 км 5/1 1500 м
[Cu hum Ac trans]
+24.4 +8.4 36 +25 +35 комфорт 1014.6 980.4
12 16.08 З 5 10 км 3/3 1500 м
[Cu hum]
+26.8 +7.5 29 +26 +32 жарко 1013.1 979.2
15 16.08 С 4 10 км 4/4 1500 м
[Cu hum]
+11.9 +6.2 68 +10 +12 1011.9 978.1
18 16.08 С 2 10 км 5/0 2000 м
[Ac und Ci fib]
+22.7 +7.0 36 +23 +23 комфорт 1013.5 979.2 +28.5
21 16.08 З 2 10 км 1/0
[Ci fib]
+19.9 +7.7 45 +21 +21 комфорт 1016.2 981.4
00 17.08 З 1 10 км 1/0
[Ci fib]
+18.3 +8.1 51 +20 +20 1016.0 981.8
03 17.08 З 4 10 км ясно +15.9 +8.3 61 +15 +15 1017.2 981.9
06 17.08 ЮЗ 3 10 км ясно +18.8 +8.7 52 +20 +23 1017.3 982.4 +14.6
09 17.08 З 2 10 км 4/4 1000 м
[Cu Sc]
+25.4 +9.4 36 +26 +35 жарко 1016.4 982.2
12 17.08 З 4 10 км 5/5 1000 м
[Cu Sc]
+28.8 +8.9 29 +29 +34 жарко 1014.2 980.5
15 17.08 С 5 10 км 5/3 1000 м
[Cu Sc Ci sp]
+28.2 +8.4 29 +28 +29 жарко 1013.5 979.7
18 17.08 СВ 2 10 км 1/1 1000 м
[Sc]
+24.5 +8.6 36 +25 +25 комфорт 1014.5 980.3 +30.1
21 17.08 З 2 10 км ясно +20.2 +9.9 52 +22 +22 комфорт 1016.5 981.7
00 18.08 З 3 10 км ясно +17.7 +10.0 61 +18 +18 1017.5 982.4
03 18.08 З 2 10 км ясно +15.8 +9.7 67 +16 +16 1017.7 982.4
06 18.08 СВ 2 10 км ясно +18.0 +10.6 62 +19 +22 1018.2 983.2 +15.5
09 18.08 ЮВ 2 10 км 1/1 1230 м
[Cu hum]
+25.7 +10.4 38 +27 +40 жарко 1016.7 982.6

 

Местоположение метеостанции Скопье город (Македония): широта 42.01 долгота 21.40 высота над уровнем моря 302 м.

В архиве по умолчанию представлена погода в Скопье городе за последнюю неделю. Архивные данные за месяц целиком и за предыдущие месяцы, начиная с января 2011 года, Вы можете получить, выбрав интересующий диапазон дат из раскрывающегося списка и нажав кнопку "Ввод!".


*Определитесь, кто Вы:
робот инопланетянин человек

Внимание! Время в таблицах - всемирное. Для получения местного времени необходимо прибавить поправку, которая равна 1 ч.

Смотрите также архив погоды в соседних городах и на ближайших метеорологических станциях:

Погода в Скопье (Македония) (20 км)
Погода в Тетово (Македония) (36 км)
Погода в Гуришках (Македония) (39 км)
Погода в Пожаране (Македония) (47 км)
Погода в Штипе (Македония) (71 км)
Погода во Вране (Черногория) (74 км)
Погода в Прилепе (Македония) (77 км)
Погода на Лазарополе (Македония) (79 км)
Погода в Крива-Паланке (Македония) (80 км)
Погода в Тополчани (Македония) (88 км)

Пояснения к столбцам:

Ветер - указаны скорость ветра в м/с - средняя за 10 мин, порывы в срок и между сроками (в фигурных скобках) и направление, откуда дует ветер: С - северный, СВ - северо-восточный, В - восточный, ЮВ - юго-восточный, Ю - южный, ЮЗ - юго-западный, З - западный, СЗ - северо-западный.
Видимость - горизонтальная дальность видимости в метрах или километрах. При видимости от 1 до 10 км при отсутствии осадков обычно наблюдается дымка, при ухудшении видимости до 1 км и менее - туман. В сухую погоду видимость может ухудшаться дымом, пылью или мглою.
Явления - указаны атмосферные явления, наблюдавшиеся в срок или в последний час перед сроком; фигурными скобками обозначены явления, наблюдавшиеся между сроками (за 1-3 часа до срока); квадратными скобками обозначены град или гололедные отложения с указанием их диаметра в мм.
Облачность - указаны через наклонную черту общая и нижняя облачность в баллах и высота нижней границы облаков в метрах; квадратными скобками обозначены формы облаков: Ci - перистые, Cs - перисто-слоистые, Cc - перисто-кучевые, Ac - высококучевые, As - высокослоистые, Sc - слоисто-кучевые, Ns - слоисто-дождевые, Cu - кучевые, Cb - кучево-дождевые. Подробнее классификацию облаков см. в Атласе облаков (PDF).
T - Температура воздуха - температура, измеренная на высоте 2 м над землей.
Td - Температура точки росы - температура, при понижении до которой содержащийся в воздухе водяной пар достигнет насыщения.
f - Относительная влажность воздуха - влажноcть воздуха, измеренная на высоте 2 м над землей.
Te - Эффективная температура - температура, которую ощущает одетый по сезону человек в тени. Характеристика душности погоды. При расчете учитывается влияние влажности воздуха и скорости ветра на теплоощущения человека.
Tes - Эффективная температура на солнце - температура, которую ощущает человек, с поправкой на солнечный нагрев. Характеристика знойности погоды. Зависит от высоты солнца над горизонтом, облачности и скорости ветра. Ночью, в пасмурную погоду, а также при ветре 12 м/с и более поправка равна нулю.
P - Атмосферное давление - приведенное к уровню моря атмосферное давление.
Po - Атмосферное давление - измеренное на уровне метеостанции атмосферное давление.
Tmin - Минимальная температура - минимум температуры воздуха на высоте 2 м над землей.
Tmax - Максимальная температура - максимум температуры воздуха на высоте 2 м над землей.
R - Количество осадков - Количество выпавших осадков за период времени, мм. При наведении курсора мыши на число - период времени, за который выпало указанное количество осадков.
R24 - Количество осадков - Количество выпавших осадков за 24 часа, мм.
S - Снежный покров - Высота снежного покрова, см. При наведении курсора мыши на число - состояние снежного покрова и степень покрытия местности в баллах.